Starlink 2521

operational
NORAD ID: 48648 Int'l Des: 2021-044 Owner: SPXS Country: US Constellation: starlink
LEOCIRCULARSTARLINK_TYPE

About Starlink 2521

Description loading...

Live Position

Loading 3D Globe...

Upcoming Passes

Altitude History

Altitude vs Time

uPlot chart will show altitude changes over time

Two-Line Element Set

1 48648U 21044L 26035.13073858 .00017844 00000-0 62880-3 0 9993
2 48648 53.1557 269.7163 0001339 80.8117 279.3034 15.29376901258694
Epoch: Feb 4, 2026 • Age: 13 hours

Current Status

Altitude 481.5 km
Velocity 7.63 km/s
Sub-Earth Point 45.45°N, 57.76°W
Launch Date May 26, 2021
Age 4.6 years
Type internet

Technical Details

Classification Payload
Mass 260.00 kg
Dry Mass 248.00 kg
Total Mass 260.00 kg
Length 0.20 m
Diameter 2.80 m
Span 9.00 m
Shape Box + pan
Manufacturer SPXS
Bus Type Starlink
Phase Status In Orbit
Owner/State SPXS/US

Large Constellations

Loading constellations...